OPS 4682 DEB, 38403

Orbit data source: Space-Track

OPS 4682 DEB, 38403 is space debris in LEO originally from a launch on Sat, 03 Apr 1965 UTC launched from the Air Force Western Test Range (AFWTR). Debris objects in space refer to the collection of defunct objects orbiting the Earth. Examples of debris include non-operational satellites, rocket bodies, and fragments generated from explosions, collisions, or faulty payload assembly.

Loading next visibility...
Identifier
38403, 1965-027DG
Orbit
LEO
Country
Flag of USUS
Related business
Manufacturer
Unknown
Mission
Spacecraft
Bus & Motor
Unknown
Mass
Unknown
Launch date (UTC)
1965-04-03 (61 years ago)
Launch vehicle
Unknown
Launch site
Air Force Western Test Range (AFWTR)
Object type
Payload
Rocket body
Debris
Shape & HBR
Unknown shape, 0.1 m
Radar Cross Section
Small (<0.1 m²)

Expand to show TLE details & history
Last TLE update: 3 days ago

TLE from 3 days ago
0 OPS 4682 DEB
1 38403U 65027DG  25301.46309851  .00000038  00000-0  10811-3 0  9990
2 38403  90.2468   5.6788 0028670  86.8509 273.5889 12.94277888631954
Epoch: 2025-10-28T11:06Z
TLE epoch observation values (Epoch: 2025-10-28T11:06:51.711Z)
Latitude
-0.00007°
Longitude
161.91311°
Altitude
1,286.151 km
Speed
7.214 km/s
True Right ascension
00h 22m 42s
True Declination
0° 00' 00"
Sunlit
Object was in full shadow at epoch
Visualization orbit readout
Latitude
Unknown
Longitude
Unknown
Altitude
Unknown
Speed
Unknown
Apparent Right ascension
Unknown
Apparent Declination
Unknown
Sunlit
N/A
Visualization observer readout
Local Sidereal Time
07:24:32
Azimuth
Unknown
Elevation
Unknown
Doppler factor
Unknown
Orbital elements
Apogee altitude
1,303.685 km
Perigee altitude
1,259.763 km
Semi-major axis
7,659.861 km
Eccentricity
0.00287
Inclination
90.2468°
RAAN
5.6788°
Arg. of periapsis
86.8509°
True anomaly
273.26094°
Mean anomaly
273.5889°
Eccentric anomaly
273.42493°
Mean motion
3.23752 °/min
Orbital period
111.2 mins
BSTAR
0.00010811
Loading maneuver chart data...
Computing Atmospheric mass density...
Loading historical data...
Loading historical data...
Loading historical data...
Loading historical data...
Loading historical data...
Loading historical data...
Loading historical data...

Documentation

Showing up to 5 results
|